Location: Casone le Fosse
(44.6547°N, 12.1103°E)
Time: 12:03:29
(UTC+00:00)

Cosmos 1346 Rocket - Pass Details

Date: 29 October 2020
Orbit: 535 x 543 km, 81.2° (Epoch: 27 November)

Event Time Altitude Azimuth Distance (km) Brightness Sun altitude
Rises 17:29:26 0° 350° (N) 2,715 6.4 -15.7°
Reaches altitude 10° 17:31:37 10° 352° (N) 1,818 5.5 -16.1°
Maximum altitude 17:35:37 77° 78° (ENE) 563 2.6 -16.8°
Drops below altitude 10° 17:39:36 10° 166° (SSE) 1,804 5.3 -17.5°
Sets 17:41:45 0° 168° (SSE) 2,691 6.2 -17.9°
